Location: Observatoire
(46.1952°N, 5.3391°E)
Time: 21:29:03
(UTC+01:00)

Tiros 1 despin weight - Pass Details

Date: 25 February 2026
Orbit: 556 x 593 km, 48.2° (Epoch: 7 March)

Event Time Altitude Azimuth Distance (km) Brightness Sun altitude
Rises 13:22:30 0° 239° (WSW) 2,756 ? 34.4°
Reaches altitude 10° 13:24:47 10° 236° (SW) 1,855 ? 34.3°
Maximum altitude 13:28:58 63° 156° (SSE) 630 ? 34.2°
Drops below altitude 10° 13:33:08 10° 75° (ENE) 1,844 ? 34.1°
Sets 13:35:23 0° 72° (ENE) 2,738 ? 34.0°
